Location: Sherrills_Ford_Terrell
(35.6000°N, 80.9830°W)
Time: 12:42:58
(UTC-04:00)

ISS - Visible Passes

Search period start: 21 May 2018 00:00
Search period end: 31 May 2018 00:00
Orbit: 402 x 407 km, 51.6° (Epoch: 22 May)

Date Brightness Start Highest point End Pass type
(mag) Time Alt. Az. Time Alt. Az. Time Alt. Az.
21 May -1.0 04:11:54 10° NNW 04:14:27 20° NNE 04:16:58 10° E visible
21 May -1.5 22:25:59 10° W 22:28:50 27° NW 22:31:40 10° NNE visible
22 May -0.4 03:20:23 10° N 03:22:02 13° NNE 03:23:42 10° ENE visible
22 May -4.0 04:55:38 10° NW 04:58:55 85° SW 05:02:09 10° SE visible
22 May -2.8 21:33:21 10° WSW 21:36:32 50° NW 21:39:44 10° NE visible
23 May -2.7 04:03:32 10° NW 04:06:42 44° NE 04:09:49 10° ESE visible
23 May -2.0 05:41:07 10° W 05:42:52 14° SW 05:44:36 10° SSW visible
23 May -0.5 22:19:18 10° WNW 22:21:09 14° NNW 22:22:59 10° N visible
24 May -1.5 04:53:25 12° S 04:53:25 12° S 04:53:40 10° SSE visible
24 May -1.0 21:26:05 10° W 21:28:43 22° NNW 21:31:21 10° NNE visible
26 May -0.5 21:19:34 10° NW 21:21:00 12° NNW 21:22:26 10° N visible
